TimeCST,TemperatureF,Dew PointF,Humidity,Sea Level PressureIn,VisibilityMPH,Wind Direction,Wind SpeedMPH,Gust SpeedMPH,PrecipitationIn,Events,Conditions,WindDirDegrees,DateUTC
12:34 AM,28.4,17.6,64,30.21,10.0,North,6.9,-,N/A,,Overcast,10,2013-02-08 06:34:00
12:54 AM,28.4,17.6,64,30.21,10.0,North,9.2,-,N/A,,Overcast,360,2013-02-08 06:54:00
1:14 AM,28.4,17.6,64,30.22,10.0,North,5.8,-,N/A,,Overcast,10,2013-02-08 07:14:00
1:33 AM,28.4,17.6,64,30.23,10.0,North,9.2,-,N/A,,Overcast,350,2013-02-08 07:33:00
1:53 AM,26.6,17.6,69,30.23,10.0,North,6.9,-,N/A,,Overcast,360,2013-02-08 07:53:00
2:13 AM,28.4,17.6,64,30.25,10.0,North,4.6,-,N/A,,Overcast,10,2013-02-08 08:13:00
2:34 AM,26.6,17.6,69,30.24,10.0,North,5.8,-,N/A,,Overcast,360,2013-02-08 08:34:00
2:54 AM,26.6,17.6,69,30.24,10.0,North,6.9,-,N/A,,Overcast,10,2013-02-08 08:54:00
3:14 AM,26.6,17.6,69,30.24,10.0,NNE,4.6,-,N/A,,Overcast,30,2013-02-08 09:14:00
3:34 AM,26.6,17.6,69,30.25,10.0,NNE,3.5,-,N/A,,Overcast,20,2013-02-08 09:34:00
3:53 AM,26.6,17.6,69,30.24,10.0,North,3.5,-,N/A,,Overcast,10,2013-02-08 09:53:00
4:14 AM,26.6,17.6,69,30.24,10.0,NNE,3.5,-,N/A,,Overcast,30,2013-02-08 10:14:00
4:34 AM,26.6,17.6,69,30.24,10.0,Calm,Calm,-,N/A,,Overcast,0,2013-02-08 10:34:00
4:54 AM,26.6,17.6,69,30.26,10.0,North,3.5,-,N/A,,Overcast,360,2013-02-08 10:54:00
5:14 AM,26.6,17.6,69,30.26,10.0,NNW,3.5,-,N/A,,Overcast,340,2013-02-08 11:14:00
5:53 AM,26.6,17.6,69,30.27,10.0,Calm,Calm,-,N/A,,Overcast,0,2013-02-08 11:53:00
6:13 AM,26.6,15.8,64,30.28,10.0,Calm,Calm,-,N/A,,Overcast,0,2013-02-08 12:13:00
6:34 AM,26.6,17.6,69,30.29,10.0,Calm,Calm,-,N/A,,Overcast,0,2013-02-08 12:34:00
6:54 AM,26.6,17.6,69,30.29,10.0,Calm,Calm,-,N/A,,Overcast,0,2013-02-08 12:54:00
7:14 AM,26.6,15.8,64,30.29,10.0,Calm,Calm,-,N/A,,Overcast,0,2013-02-08 13:14:00
7:34 AM,26.6,17.6,69,30.30,10.0,Calm,Calm,-,N/A,,Overcast,0,2013-02-08 13:34:00
7:53 AM,26.6,15.8,64,30.30,10.0,Calm,Calm,-,N/A,,Overcast,0,2013-02-08 13:53:00
8:14 AM,26.6,17.6,69,30.31,10.0,Calm,Calm,-,N/A,,Overcast,0,2013-02-08 14:14:00
8:34 AM,26.6,15.8,64,30.31,10.0,Calm,Calm,-,N/A,,Overcast,0,2013-02-08 14:34:00
8:54 AM,26.6,15.8,64,30.32,10.0,Calm,Calm,-,N/A,,Overcast,0,2013-02-08 14:54:00
9:13 AM,26.6,15.8,64,30.32,10.0,Calm,Calm,-,N/A,,Overcast,0,2013-02-08 15:13:00
9:34 AM,26.6,17.6,69,30.32,10.0,East,3.5,-,N/A,,Overcast,90,2013-02-08 15:34:00
9:54 AM,26.6,17.6,69,30.32,10.0,ESE,5.8,-,N/A,,Overcast,120,2013-02-08 15:54:00
10:14 AM,26.6,17.6,69,30.32,10.0,East,4.6,-,N/A,,Overcast,80,2013-02-08 16:14:00
10:59 AM,26.6,17.6,69,30.32,10.0,Calm,Calm,-,N/A,,Overcast,0,2013-02-08 16:59:00
11:14 AM,26.6,17.6,69,30.33,10.0,ESE,4.6,-,N/A,,Overcast,110,2013-02-08 17:14:00
11:33 AM,26.6,17.6,69,30.32,10.0,East,8.1,-,N/A,,Overcast,90,2013-02-08 17:33:00
11:53 AM,26.6,17.6,69,30.32,10.0,ENE,6.9,-,N/A,,Overcast,70,2013-02-08 17:53:00
12:14 PM,26.6,17.6,69,30.31,10.0,SE,6.9,-,N/A,,Overcast,130,2013-02-08 18:14:00
12:34 PM,26.6,17.6,69,30.31,10.0,SE,4.6,-,N/A,,Overcast,130,2013-02-08 18:34:00
12:54 PM,26.6,17.6,69,30.31,10.0,ESE,4.6,-,N/A,,Overcast,110,2013-02-08 18:54:00
1:14 PM,26.6,17.6,69,30.30,10.0,SE,4.6,-,N/A,,Overcast,130,2013-02-08 19:14:00
1:33 PM,26.6,17.6,69,30.30,10.0,SE,4.6,-,N/A,,Overcast,140,2013-02-08 19:33:00
1:53 PM,26.6,17.6,69,30.29,10.0,ESE,8.1,-,N/A,,Overcast,110,2013-02-08 19:53:00
2:14 PM,26.6,17.6,69,30.29,10.0,SE,6.9,-,N/A,,Overcast,130,2013-02-08 20:14:00
2:34 PM,26.6,17.6,69,30.28,10.0,SE,5.8,-,N/A,,Overcast,130,2013-02-08 20:34:00
2:54 PM,26.6,17.6,69,30.28,10.0,SSE,4.6,-,N/A,,Overcast,150,2013-02-08 20:54:00
3:14 PM,26.6,17.6,69,30.28,10.0,South,6.9,-,N/A,,Overcast,180,2013-02-08 21:14:00
3:34 PM,26.6,17.6,69,30.27,10.0,SE,6.9,-,N/A,,Overcast,140,2013-02-08 21:34:00
3:54 PM,26.6,17.6,69,30.27,10.0,SE,5.8,-,N/A,,Overcast,130,2013-02-08 21:54:00
4:14 PM,26.6,17.6,69,30.26,10.0,SE,5.8,-,N/A,,Overcast,130,2013-02-08 22:14:00
4:34 PM,26.6,17.6,69,30.26,10.0,SSE,6.9,-,N/A,,Overcast,150,2013-02-08 22:34:00
4:54 PM,26.6,17.6,69,30.26,10.0,SE,8.1,-,N/A,,Overcast,140,2013-02-08 22:54:00
5:14 PM,26.6,17.6,69,30.25,10.0,SSE,6.9,-,N/A,,Overcast,160,2013-02-08 23:14:00
5:34 PM,26.6,17.6,69,30.24,10.0,SE,10.4,-,N/A,,Overcast,130,2013-02-08 23:34:00
5:53 PM,26.6,17.6,69,30.24,10.0,SE,10.4,-,N/A,,Overcast,130,2013-02-08 23:53:00
6:13 PM,26.6,17.6,69,30.23,10.0,SE,9.2,-,N/A,,Overcast,140,2013-02-09 00:13:00
6:34 PM,28.4,17.6,64,30.24,10.0,SE,9.2,-,N/A,,Overcast,140,2013-02-09 00:34:00
6:54 PM,28.4,17.6,64,30.24,10.0,SSE,8.1,11.5,N/A,,Overcast,150,2013-02-09 00:54:00
7:14 PM,28.4,19.4,69,30.23,10.0,SSE,9.2,-,N/A,,Overcast,150,2013-02-09 01:14:00
7:53 PM,28.4,19.4,69,30.23,10.0,SSE,9.2,17.3,N/A,,Overcast,150,2013-02-09 01:53:00
8:14 PM,28.4,19.4,69,30.22,10.0,SSE,12.7,-,N/A,,Overcast,160,2013-02-09 02:14:00
8:33 PM,28.4,19.4,69,30.22,10.0,SSE,15.0,20.7,N/A,,Overcast,160,2013-02-09 02:33:00
8:54 PM,28.4,19.4,69,30.22,10.0,SSE,11.5,17.3,N/A,,Overcast,160,2013-02-09 02:54:00
9:14 PM,28.4,19.4,69,30.21,10.0,SSE,16.1,-,N/A,,Overcast,150,2013-02-09 03:14:00
9:34 PM,28.4,19.4,69,30.20,10.0,SSE,13.8,20.7,N/A,,Overcast,150,2013-02-09 03:34:00
9:53 PM,28.4,19.4,69,30.21,10.0,SSE,12.7,-,N/A,,Overcast,160,2013-02-09 03:53:00
10:13 PM,28.4,19.4,69,30.21,10.0,SSE,17.3,-,N/A,,Overcast,160,2013-02-09 04:13:00
10:34 PM,28.4,19.4,69,30.20,10.0,SSE,17.3,-,N/A,,Overcast,150,2013-02-09 04:34:00
10:53 PM,28.4,19.4,69,30.21,10.0,SSE,13.8,17.3,N/A,,Overcast,150,2013-02-09 04:53:00
11:14 PM,28.4,19.4,69,30.21,10.0,SSE,16.1,21.9,N/A,,Overcast,160,2013-02-09 05:14:00
11:34 PM,28.4,19.4,69,30.21,10.0,South,11.5,-,N/A,,Overcast,170,2013-02-09 05:34:00
11:54 PM,28.4,19.4,69,30.20,10.0,SSE,12.7,17.3,N/A,,Overcast,160,2013-02-09 05:54:00